Location: Calvatone
(45.1167°N, 10.4333°E)
Time: 20:52:10
(UTC+00:00)

Cosmos 1867 - Pass Details

Date: 28 January 2023
Orbit: 778 x 797 km, 65.0° (Epoch: 21 March)

Event Time Altitude Azimuth Distance (km) Brightness Sun altitude
Rises 17:36:04 0° 322° (NW) 3,310 7.2 -13.6°
Reaches altitude 10° 17:38:31 10° 320° (NW) 2,377 6.4 -14.0°
Maximum altitude 17:43:56 66° 239° (WSW) 869 4.0 -14.9°
Drops below altitude 10° 17:49:18 10° 158° (SSE) 2,357 5.9 -15.9°
Sets 17:51:43 0° 156° (SSE) 3,280 6.6 -16.3°
